SPACEMOBILE-002

Last updated on Sun Oct 13 2024 00:02:03 GMT+0000 (Coordinated Universal Time)

1 61048U 24163D 24286.19667369 .00006666 00000+0 33964-3 0 9995 2 61048 52.9771 245.3505 0013417 59.8928 300.3394 15.17873421 4525
UTC large
Height (km)
Speed (km/s)
/
Latitude / Longitude
Inclination (degrees)
Orbital Period (minutes)
Azimuth
Elevation
Range (km)
Doppler Factor

Next 0 passes for location: London (51.5072 / 0.1276)

Sorry there are no passes over London.